logo tempoitalia

Diretta Meteo Solenzara, Franciadomenica 26 giugno ore 12:00

Mappa
Sereno 27 °C Sereno 24 Ore: T.min 22 T.max 29
Ponente Est Km/h 11.1 Punto di rugiada: 22 °C Umidità: 74% Visibilità: 10 Km
Il sole sorge alle: 05:47 Il sole tramonta alle: 21:03
26 Giugno 2022 12:00 tempo osservato: Sereno Sereno 27 74 1014 vento: Nord E 11.1
26 Giugno 2022 11:30 tempo osservato: Sereno Sereno 27 74 1014 vento: Nord E/SE 7.4
26 Giugno 2022 11:00 tempo osservato: Sereno Sereno 28 65 1014 vento: Nord N 5.5
26 Giugno 2022 10:30 tempo osservato: Sereno Sereno 28 65 1014 vento: Nord SE 11.1
26 Giugno 2022 10:00 tempo osservato: Sereno Sereno 27 74 1014 vento: Nord S 9.3
26 Giugno 2022 09:30 tempo osservato: Sereno Sereno 26 78 1014 vento: Nord N 5.5
26 Giugno 2022 09:00 tempo osservato: Molto Nuvoloso Molto Nuvoloso 26 78 1014 vento: Nord S/SE 7.4
26 Giugno 2022 08:30 tempo osservato: Sereno Sereno 26 78 1014 vento: Nord N 5.5
26 Giugno 2022 08:00 tempo osservato: Sereno Sereno 26 69 1014 vento: Nord N 5.5
26 Giugno 2022 07:30 tempo osservato: Sereno Sereno 24 64 1014 vento: Nord N 5.5
26 Giugno 2022 07:00 tempo osservato: Sereno Sereno 22 68 1014 vento: Nord N 5.5
26 Giugno 2022 06:30 tempo osservato: Sereno Sereno 22 68 1013 vento: Nord O/SO 7.4
26 Giugno 2022 06:00 tempo osservato: Sereno Sereno 22 68 1013 vento: Nord O 9.3
26 Giugno 2022 05:30 tempo osservato: Sereno Sereno 22 64 1013 vento: Nord O 9.3
26 Giugno 2022 05:00 tempo osservato: Sereno Sereno 22 64 1013 vento: Nord O 9.3
26 Giugno 2022 04:30 tempo osservato: Sereno Sereno 22 64 1013 vento: Nord O 9.3
26 Giugno 2022 04:00 tempo osservato: Sereno Sereno 22 68 1013 vento: Nord O 9.3
26 Giugno 2022 03:30 tempo osservato: Sereno Sereno 22 73 1014 vento: Nord O 9.3
26 Giugno 2022 03:00 tempo osservato: Sereno Sereno 22 73 1013 vento: Nord O 7.4
26 Giugno 2022 02:30 tempo osservato: Sereno Sereno 23 68 1013 vento: Nord N 5.5
26 Giugno 2022 02:00 tempo osservato: Sereno Sereno 23 73 1014 vento: Nord N 5.5
26 Giugno 2022 01:30 tempo osservato: Sereno Sereno 23 78 1014 vento: Nord O 7.4
26 Giugno 2022 01:00 tempo osservato: Sereno Sereno 24 73 1014 vento: Nord N 5.5
26 Giugno 2022 00:30 tempo osservato: Sereno Sereno 24 78 1014 vento: Nord O 7.4
26 Giugno 2022 00:00 tempo osservato: Sereno Sereno 24 78 1014 vento: Nord N 5.5
25 Giugno 2022 23:30 tempo osservato: Sereno Sereno 24 83 1014 vento: Nord N 3.7
25 Giugno 2022 23:00 tempo osservato: Sereno Sereno 24 83 1014 vento: Nord O/SO 7.4
25 Giugno 2022 22:30 tempo osservato: Sereno Sereno 25 78 1014 vento: Nord N 5.5
25 Giugno 2022 22:00 tempo osservato: Sereno Sereno 25 78 1014 vento: Nord N 5.5
25 Giugno 2022 21:30 tempo osservato: Sereno Sereno 25 83 1014 vento: Nord S 9.3
25 Giugno 2022 21:00 tempo osservato: Nuvoloso Nuvoloso 25 83 1014 vento: Nord N 5.5
25 Giugno 2022 20:30 tempo osservato: Nuvoloso Nuvoloso 26 73 1013 vento: Nord N 5.5
25 Giugno 2022 20:00 tempo osservato: Sereno Sereno 26 73 1013 vento: Nord SE 7.4
25 Giugno 2022 19:30 tempo osservato: Nuvoloso Nuvoloso 27 65 1013 vento: Nord N 5.5
25 Giugno 2022 19:00 tempo osservato: Sereno Sereno 28 61 1013 vento: Nord SE 7.4
25 Giugno 2022 18:30 tempo osservato: Sereno Sereno 28 61 1013 vento: Nord E/SE 9.3
25 Giugno 2022 18:00 tempo osservato: Sereno Sereno 28 65 1013 vento: Nord E/SE 11.1
25 Giugno 2022 17:30 tempo osservato: Sereno Sereno 28 65 1014 vento: Nord E 11.1
25 Giugno 2022 17:00 tempo osservato: Sereno Sereno 28 69 1014 vento: Nord E 13
25 Giugno 2022 16:30 tempo osservato: Poco Nuvoloso Poco Nuvoloso 28 69 1014 vento: Nord E/NE 11.1
25 Giugno 2022 16:00 tempo osservato: Nuvoloso Nuvoloso 28 69 1014 vento: Nord E/NE 11.1
25 Giugno 2022 15:30 tempo osservato: Sereno Sereno 28 69 1014 vento: Nord E 14.8
25 Giugno 2022 15:00 tempo osservato: Poco Nuvoloso Poco Nuvoloso 29 66 1014 vento: Nord E/NE 14.8
25 Giugno 2022 14:30 tempo osservato: Sereno Sereno 28 69 1014 vento: Nord E/NE 13
25 Giugno 2022 14:00 tempo osservato: Poco Nuvoloso Poco Nuvoloso 27 74 1014 vento: Nord E/NE 14.8
25 Giugno 2022 13:30 tempo osservato: Sereno Sereno 29 66 1014 vento: Nord E 18.5
25 Giugno 2022 13:00 tempo osservato: Sereno Sereno 28 74 1014 vento: Nord E/NE 18.5